Date String (YYYY-MM-DD hh:mm:ss) UTC,Instrument flags,Ambient pressure (hPa),Sample flow (lpm),Bypass flow (lpm),Sample temperature (°C),Ambient temperature (°C),ASC tube jacket temperature (°C),LED temperature (°C),Box temperature (°C),Sample RH (%),Span deviation,Mass concentration (μg/m³),Mass concentration (μg/m³),Mass concentration (μg/m³)
DateTimeUTC,F1_M11,P_M11,Q1_M11,Q2_M11,T1_M11,T2_M11,T3_M11,T4_M11,T5_M11,U1_M11,ZSPAN_M11,X2_M11,X0_M11,X1_M11
2022-08-31 10:00:00,,0831.4,5.00,0.00,30.1,28.9,00.0,38.8,31.9,21.7,0000.0,0007.02,0016.36,0005.83
2022-08-31 10:01:00,,0831.4,5.00,0.00,30.1,29.0,00.0,38.8,31.9,21.8,0000.0,0007.05,0016.19,0005.86
2022-08-31 10:02:00,,0831.5,5.00,0.00,30.1,29.0,00.0,38.8,31.9,21.7,0000.0,0007.11,0015.88,0005.89
2022-08-31 10:03:00,,0831.5,5.01,0.00,30.1,29.0,00.0,38.8,31.9,21.6,0000.0,0007.09,0015.47,0005.90
2022-08-31 10:04:00,,0831.5,4.99,0.00,30.1,29.0,00.0,38.8,31.9,21.5,0000.0,0007.07,0015.38,0005.91
2022-08-31 10:05:00,,0831.4,5.00,0.00,30.1,29.0,00.0,38.9,32.0,21.5,0000.0,0007.08,0016.03,0005.92
2022-08-31 10:06:00,,0831.5,5.00,0.00,30.1,29.0,00.0,38.9,32.0,21.6,0000.0,0007.07,0016.98,0005.93
2022-08-31 10:07:00,,0831.5,5.00,0.00,30.1,29.0,00.0,38.9,32.0,21.7,0000.0,0007.10,0017.22,0005.95
2022-08-31 10:08:00,,0831.4,4.99,0.00,30.2,29.0,00.0,38.9,32.0,21.7,0000.0,0007.18,0016.32,0005.97
2022-08-31 10:09:00,,0831.5,5.00,0.00,30.2,29.1,00.0,38.9,32.0,21.6,0000.0,0007.23,0016.01,0005.98
2022-08-31 10:10:00,,0831.5,5.01,0.00,30.2,29.1,00.0,38.9,32.0,21.6,0000.0,0007.26,0016.13,0005.99
2022-08-31 10:11:00,,0831.4,5.00,0.00,30.2,29.1,00.0,38.9,32.0,21.6,0000.0,0007.31,0016.55,0005.99
2022-08-31 10:12:00,,0831.5,5.01,0.00,30.2,29.1,00.0,38.9,32.1,21.6,0000.0,0007.30,0017.03,0005.99
2022-08-31 10:13:00,,0831.5,5.00,0.00,30.2,28.8,00.0,38.9,32.0,21.5,0000.0,0007.31,0017.45,0006.00
2022-08-31 10:14:00,,0831.5,5.00,0.00,30.2,27.5,00.0,38.9,31.9,21.4,0000.0,0007.33,0017.99,0006.00
2022-08-31 10:15:00,,0831.5,4.99,0.00,30.1,27.0,00.0,38.9,31.9,21.3,0000.0,0007.33,0018.88,0006.01
2022-08-31 10:16:00,,0831.5,5.00,0.00,30.1,27.1,00.0,38.8,31.7,21.5,0000.0,0007.34,0018.15,0006.00
2022-08-31 10:17:00,,0831.5,5.00,0.00,30.0,27.3,00.0,38.8,31.6,21.5,0000.0,0007.38,0017.87,0006.00
2022-08-31 10:18:00,,0831.4,5.00,0.00,29.9,27.6,00.0,38.8,31.6,21.5,0000.0,0007.45,0017.11,0006.00
2022-08-31 10:19:00,,0831.5,5.00,0.00,29.9,27.9,00.0,38.7,31.6,21.4,0000.0,0007.39,0016.86,0005.99
2022-08-31 10:20:00,,0831.5,4.99,0.00,29.9,28.1,00.0,38.7,31.6,21.3,0000.0,0007.39,0017.20,0005.98
2022-08-31 10:21:00,,0831.4,5.02,0.00,29.9,28.3,00.0,38.7,31.7,21.3,0000.0,0007.38,0017.80,0005.98
2022-08-31 10:22:00,,0831.4,5.00,0.00,29.9,28.4,00.0,38.7,31.7,21.3,0000.0,0007.29,0017.83,0005.96
2022-08-31 10:23:00,,0831.4,4.98,0.00,29.9,28.5,00.0,38.7,31.7,21.3,0000.0,0007.27,0018.28,0005.96
2022-08-31 10:24:00,,0831.4,5.00,0.00,29.9,28.6,00.0,38.7,31.7,21.3,0000.0,0007.28,0020.25,0005.95
2022-08-31 10:25:00,,0831.4,5.01,0.00,29.9,28.7,00.0,38.7,31.8,21.3,0000.0,0007.23,0019.88,0005.95
2022-08-31 10:26:00,,0831.4,5.00,0.00,30.0,28.7,00.0,38.7,31.7,21.3,0000.0,0007.23,0018.72,0005.96
2022-08-31 10:27:00,,0831.4,5.01,0.00,30.0,28.8,00.0,38.7,31.8,21.2,0000.0,0007.26,0019.27,0005.97
2022-08-31 10:28:00,,0831.4,4.98,0.00,30.0,28.8,00.0,38.7,31.8,21.3,0000.0,0007.22,0018.90,0005.97
2022-08-31 10:29:00,,0831.4,5.00,0.00,30.0,28.9,00.0,38.7,31.9,21.1,0000.0,0007.17,0019.20,0005.96
2022-08-31 10:30:00,,0831.4,5.01,0.00,30.0,28.9,00.0,38.8,31.9,21.1,0000.0,0007.11,0019.93,0005.94
2022-08-31 10:31:00,,0831.4,5.01,0.00,30.0,29.0,00.0,38.8,31.9,21.0,0000.0,0007.09,0019.50,0005.96
2022-08-31 10:32:00,,0831.4,5.00,0.00,30.1,29.0,00.0,38.8,31.9,21.0,0000.0,0007.11,0019.03,0005.96
2022-08-31 10:33:00,,0831.3,4.99,0.00,30.1,29.0,00.0,38.8,32.0,21.0,0000.0,0007.11,0018.63,0005.97
2022-08-31 10:34:00,,0831.3,5.00,0.00,30.1,29.1,00.0,38.8,32.0,20.8,0000.0,0007.08,0017.86,0005.96
2022-08-31 10:35:00,,0831.3,5.00,0.00,30.1,29.1,00.0,38.8,32.0,20.7,0000.0,0007.06,0016.26,0005.96
2022-08-31 10:36:00,,0831.3,5.01,0.00,30.2,29.1,00.0,38.8,32.0,20.7,0000.0,0007.12,0017.49,0005.97
2022-08-31 10:37:00,,0831.3,5.00,0.00,30.2,29.2,00.0,38.9,32.0,20.9,0000.0,0007.14,0017.73,0005.95
2022-08-31 10:38:00,,0831.3,4.98,0.00,30.2,29.2,00.0,38.9,32.1,20.9,0000.0,0007.14,0017.93,0005.94
2022-08-31 10:39:00,,0831.3,5.00,0.00,30.2,29.2,00.0,38.9,32.1,20.9,0000.0,0007.14,0018.61,0005.94
2022-08-31 10:40:00,,0831.3,5.00,0.00,30.2,29.2,00.0,38.9,32.1,20.8,0000.0,0007.17,0018.01,0005.94
2022-08-31 10:41:00,,0831.3,4.99,0.00,30.3,28.5,00.0,38.9,32.1,20.8,0000.0,0007.18,0017.47,0005.95
2022-08-31 10:42:00,,0831.3,5.00,0.00,30.2,27.2,00.0,38.9,32.0,20.7,0000.0,0007.17,0019.02,0005.94
2022-08-31 10:43:00,,0831.3,4.99,0.00,30.2,27.0,00.0,38.8,31.9,20.7,0000.0,0007.12,0019.41,0005.94
2022-08-31 10:44:00,,0831.3,5.01,0.00,30.0,27.1,00.0,38.8,31.6,20.9,0000.0,0007.13,0019.58,0005.94
2022-08-31 10:45:00,,0831.3,5.00,0.00,30.0,27.4,00.0,38.8,31.6,21.0,0000.0,0007.17,0019.84,0005.95
2022-08-31 10:46:00,,0831.3,5.01,0.00,30.0,27.7,00.0,38.7,31.6,21.0,0000.0,0007.11,0019.88,0005.94
2022-08-31 10:47:00,,0831.3,5.00,0.00,29.9,28.0,00.0,38.7,31.7,21.0,0000.0,0007.04,0018.47,0005.93
2022-08-31 10:48:00,,0831.3,5.00,0.00,29.9,28.1,00.0,38.7,31.7,21.0,0000.0,0007.07,0018.43,0005.94
2022-08-31 10:49:00,,0831.3,5.00,0.00,29.9,28.3,00.0,38.7,31.7,21.0,0000.0,0007.05,0017.58,0005.94
2022-08-31 10:50:00,,0831.3,5.00,0.00,29.9,28.4,00.0,38.7,31.7,20.9,0000.0,0007.09,0017.02,0005.94
2022-08-31 10:51:00,,0831.3,5.00,0.00,29.9,28.5,00.0,38.7,31.7,20.9,0000.0,0007.06,0016.73,0005.94
2022-08-31 10:52:00,,0831.3,5.00,0.00,29.9,28.6,00.0,38.7,31.8,20.9,0000.0,0007.08,0016.67,0005.93
2022-08-31 10:53:00,,0831.4,5.00,0.00,30.0,28.7,00.0,38.7,31.8,20.9,0000.0,0007.14,0015.43,0005.93
2022-08-31 10:54:00,,0831.3,5.01,0.00,30.0,28.8,00.0,38.7,31.8,20.9,0000.0,0007.15,0014.79,0005.95
2022-08-31 10:55:00,,0831.3,4.98,0.00,30.0,28.8,00.0,38.7,31.8,20.9,0000.0,0007.18,0015.02,0005.95
2022-08-31 10:56:00,,0831.3,5.01,0.00,30.0,28.9,00.0,38.7,31.9,20.9,0000.0,0007.22,0015.06,0005.97
2022-08-31 10:57:00,,0831.3,5.00,0.00,30.0,28.9,00.0,38.7,31.9,20.8,0000.0,0007.32,0015.23,0006.01
2022-08-31 10:58:00,,0831.3,5.00,0.00,30.1,29.0,00.0,38.8,31.9,20.9,0000.0,0007.40,0015.77,0006.03
2022-08-31 10:59:00,,0831.4,5.01,0.00,30.1,29.0,00.0,38.8,31.9,21.1,0000.0,0007.39,0016.39,0006.04
